Location: *
(18.5200°S, 46.4500°E)
Time: 05:55:32
(UTC+00:00)

NOSS 3-1 (C) - Pass Details

Date: 19 July 2019
Orbit: 775 x 1433 km, 63.4° (Epoch: 11 August)

Event Time Altitude Azimuth Distance (km) Brightness Sun altitude
Rises 16:14:21 0° 206° (SSW) 3,505 6.5 -23.2°
Reaches altitude 10° 16:16:57 10° 206° (SSW) 2,489 5.7 -23.8°
Maximum altitude 16:22:36 89° 297° (WNW) 801 3.0 -25.1°
Enters shadow 16:25:49 24° 24° (NNE) 1,553 4.5 -25.8°
